GFSFLT2_prec_kuchsnow_099.txt.gz
Snowfall_Accumulation
0.0 0.0 0.0 0.0 0.0 0.0 0.0 0.0 0.0 0.0 0.0 0.0 0.0 0.0 0.0 0.0 0.0 0.0 0.0 0.0 0.0 0.0 0.0 0.0 0.0 0.0 0.0
0.0 0.3 0.4 0.1 0.2 0.0 0.0 0.0 0.0 0.0 0.0 0.0 0.0 0.0 0.0 0.0 0.0 0.0 0.0 0.0 0.0 0.0 0.0 0.0 0.0 0.0 0.0
0.3 0.8 1.3 0.9 2.0 1.6 1.1 0.0 0.0 0.0 0.0 0.0 0.0 0.0 0.0 0.0 0.0 0.0 0.0 0.0 0.0 0.0 0.0 0.0 0.0 0.0 0.0
0.3 1.0 0.8 0.5 0.3 0.4 0.4 0.2 0.0 0.0 0.0 0.0 0.0 0.0 0.0 0.0 0.0 0.0 0.0 0.0 0.0 0.0 0.0 0.0 0.0 0.0 0.0
0.9 0.3 0.3 0.3 0.3 0.2 0.1 0.0 0.0 0.0 0.0 0.0 0.0 0.0 0.0 0.0 0.0 0.0 0.0 0.0 0.0 0.0 0.0 0.0 0.0 0.0 0.0
0.4 0.0 0.0 0.0 0.0 0.0 0.2 0.3 0.6 0.0 0.0 0.0 0.0 0.0 0.0 0.0 0.0 0.0 0.0 0.0 0.0 0.0 0.0 0.0 0.0 0.0 0.0
0.0 0.0 0.0 0.0 0.4 0.3 0.6 0.7 0.1 0.0 0.0 0.0 0.0 0.0 0.0 0.0 0.0 0.0 0.0 0.0 0.0 0.0 0.0 0.0 0.0 0.0 0.0
0.0 0.0 0.1 0.1 0.2 0.3 0.3 0.2 0.0 0.0 0.0 0.1 0.0 0.0 0.0 0.0 0.0 0.0 0.0 0.0 0.0 0.0 0.0 0.0 0.0 0.0 0.0
0.0 0.0 0.0 0.0 0.0 0.0 0.2 0.4 0.3 0.0 0.0 0.0 0.0 0.0 0.0 0.0 0.0 0.0 0.0 0.0 0.0 0.0 0.0 0.0 0.0 0.0 0.0
0.0 0.0 0.0 0.0 0.0 0.0 0.1 1.6 1.1 0.8 0.0 1.0 0.0 0.2 1.7 0.0 0.0 0.0 0.0 0.0 0.0 0.0 0.0 0.0 0.0 0.0 0.1
0.0 0.0 0.0 0.0 0.0 0.0 0.0 1.1 3.5 2.4 0.0 3.1 4.2 0.1 2.9 0.3 0.0 0.0 0.0 0.0 0.0 0.0 0.0 0.0 0.1 0.1 0.8
0.0 0.0 0.0 0.0 0.0 0.0 0.0 0.0 0.1 1.3 0.3 0.5 8.1 2.1 5.1 3.1 0.0 0.0 0.0 0.0 0.0 0.0 0.0 0.0 0.0 0.0 0.1
0.0 0.0 0.0 0.0 0.0 0.0 0.0 0.0 0.0 0.0 0.0 0.0 1.0 2.1 5.1 5.4 2.5 0.2 0.0 0.0 0.0 0.1 0.2 0.4 0.6 0.4 0.8
0.0 0.1 0.0 0.0 0.0 0.0 0.1 0.0 0.4 0.0 0.0 0.0 0.0 1.0 4.9 1.9 2.9 2.1 0.0 0.7 0.2 0.3 0.6 0.4 0.2 0.4 0.9
0.0 0.1 0.0 0.0 0.0 0.0 0.0 0.6 1.6 0.0 0.0 0.0 0.0 0.0 0.2 0.9 3.8 0.0 0.0 0.0 0.0 0.9 1.3 1.4 0.2 1.1 1.0
0.9 0.8 1.7 1.4 1.1 1.7 1.1 1.2 1.7 0.3 0.4 0.2 0.1 0.5 0.0 0.0 0.0 1.5 1.0 0.0 0.0 0.3 1.0 4.5 1.5 0.0 0.2
3.2 3.1 3.5 3.2 2.5 2.6 1.8 1.3 1.5 0.9 0.7 0.6 1.6 4.6 7.0 1.4 0.0 0.0 4.0 2.6 0.4 0.4 0.6 2.2 3.2 1.2 0.7

GFSFLT2_prec_kuchsnow_102.txt.gz
Snowfall_Accumulation
0.0 0.0 0.0 0.0 0.0 0.0 0.0 0.0 0.0 0.0 0.0 0.0 0.0 0.0 0.0 0.0 0.0 0.0 0.0 0.0 0.0 0.0 0.0 0.0 0.0 0.0 0.0
0.0 0.3 0.4 0.1 0.2 0.0 0.0 0.0 0.0 0.0 0.0 0.0 0.0 0.0 0.0 0.0 0.0 0.0 0.0 0.0 0.0 0.0 0.0 0.0 0.0 0.0 0.0
0.3 0.8 1.3 0.9 2.0 1.6 1.1 0.0 0.0 0.0 0.0 0.0 0.0 0.0 0.0 0.0 0.0 0.0 0.0 0.0 0.0 0.0 0.0 0.0 0.0 0.0 0.0
0.3 1.0 0.8 0.5 0.3 0.4 0.4 0.2 0.0 0.0 0.0 0.0 0.0 0.0 0.0 0.0 0.0 0.0 0.0 0.0 0.0 0.0 0.0 0.0 0.0 0.0 0.0
0.9 0.3 0.3 0.3 0.3 0.2 0.1 0.0 0.0 0.0 0.0 0.0 0.0 0.0 0.0 0.0 0.0 0.0 0.0 0.0 0.0 0.0 0.0 0.0 0.0 0.0 0.0
0.4 0.0 0.0 0.0 0.0 0.0 0.2 0.3 0.6 0.0 0.0 0.0 0.0 0.0 0.0 0.0 0.0 0.0 0.0 0.0 0.0 0.0 0.0 0.0 0.0 0.0 0.0
0.0 0.0 0.0 0.0 0.4 0.3 0.6 0.7 0.1 0.0 0.0 0.0 0.0 0.0 0.0 0.0 0.0 0.0 0.0 0.0 0.0 0.0 0.0 0.0 0.0 0.0 0.0
0.0 0.0 0.1 0.1 0.2 0.3 0.3 0.2 0.0 0.0 0.0 0.1 0.0 0.0 0.0 0.0 0.0 0.0 0.0 0.0 0.0 0.0 0.0 0.0 0.0 0.0 0.0
0.0 0.0 0.0 0.0 0.0 0.0 0.2 0.4 0.3 0.0 0.0 0.0 0.0 0.0 0.0 0.0 0.0 0.0 0.0 0.0 0.0 0.0 0.0 0.0 0.0 0.0 0.0
0.0 0.0 0.0 0.0 0.0 0.0 0.1 1.6 1.1 0.8 0.0 1.0 0.0 0.2 1.7 0.0 0.0 0.0 0.0 0.0 0.0 0.0 0.0 0.0 0.0 0.0 0.1
0.0 0.0 0.0 0.0 0.0 0.0 0.0 1.1 3.5 2.4 0.0 3.1 4.2 0.1 2.9 0.3 0.0 0.0 0.0 0.0 0.0 0.0 0.0 0.0 0.1 0.1 0.8
0.0 0.0 0.0 0.0 0.0 0.0 0.0 0.0 0.1 1.3 0.3 0.5 8.1 2.1 5.1 3.1 0.0 0.0 0.0 0.0 0.0 0.0 0.0 0.0 0.0 0.0 0.1
0.0 0.0 0.0 0.0 0.0 0.0 0.0 0.0 0.0 0.0 0.0 0.0 1.0 2.1 5.1 5.4 2.5 0.2 0.0 0.0 0.0 0.1 0.2 0.4 0.6 0.4 0.8
0.1 0.1 0.0 0.0 0.0 0.0 0.1 0.0 0.4 0.0 0.0 0.0 0.0 1.0 4.9 1.9 2.9 2.1 0.0 0.7 0.2 0.3 0.6 0.4 0.2 0.4 0.9
0.0 0.1 0.0 0.0 0.0 0.0 0.0 0.6 1.6 2.3 1.7 1.3 0.0 0.0 0.2 0.9 3.9 0.0 0.0 0.0 0.0 0.9 1.3 1.4 0.2 1.1 1.0
1.0 1.1 1.7 1.4 1.1 2.4 1.9 1.8 2.8 1.9 2.2 1.7 1.0 1.2 0.3 0.1 0.0 1.5 1.0 0.0 0.0 0.3 1.0 4.5 1.5 0.0 0.2
3.3 3.1 4.0 3.2 3.4 3.4 2.6 2.3 2.3 2.1 2.6 2.2 3.0 5.1 7.3 1.6 0.0 0.0 4.0 2.6 0.4 0.4 0.6 2.2 3.2 1.2 0.7

GFSFLT2_prec_kuchsnow_105.txt.gz
Snowfall_Accumulation
0.0 0.0 0.0 0.0 0.0 0.0 0.0 0.0 0.0 0.0 0.0 0.0 0.0 0.0 0.0 0.0 0.0 0.0 0.0 0.0 0.0 0.0 0.0 0.0 0.0 0.0 0.0
0.0 0.3 0.4 0.1 0.2 0.0 0.0 0.0 0.0 0.0 0.0 0.0 0.0 0.0 0.0 0.0 0.0 0.0 0.0 0.0 0.0 0.0 0.0 0.0 0.0 0.0 0.0
0.3 0.8 1.3 0.9 2.0 1.6 1.1 0.0 0.0 0.0 0.0 0.0 0.0 0.0 0.0 0.0 0.0 0.0 0.0 0.0 0.0 0.0 0.0 0.0 0.0 0.0 0.0
0.3 1.0 0.8 0.5 0.3 0.4 0.4 0.2 0.0 0.0 0.0 0.0 0.0 0.0 0.0 0.0 0.0 0.0 0.0 0.0 0.0 0.0 0.0 0.0 0.0 0.0 0.0
0.9 0.3 0.3 0.3 0.3 0.2 0.1 0.0 0.0 0.0 0.0 0.0 0.0 0.0 0.0 0.0 0.0 0.0 0.0 0.0 0.0 0.0 0.0 0.0 0.0 0.0 0.0
0.4 0.0 0.0 0.0 0.0 0.0 0.2 0.3 0.6 0.0 0.0 0.0 0.0 0.0 0.0 0.0 0.0 0.0 0.0 0.0 0.0 0.0 0.0 0.0 0.0 0.0 0.0
0.0 0.0 0.0 0.0 0.4 0.3 0.6 0.7 0.1 0.0 0.0 0.0 0.0 0.0 0.0 0.0 0.0 0.0 0.0 0.0 0.0 0.0 0.0 0.0 0.0 0.0 0.0
0.0 0.0 0.1 0.1 0.2 0.3 0.3 0.2 0.0 0.0 0.0 0.1 0.0 0.0 0.0 0.0 0.0 0.0 0.0 0.0 0.0 0.0 0.0 0.0 0.0 0.0 0.0
0.0 0.0 0.0 0.0 0.0 0.0 0.2 0.4 0.3 0.0 0.0 0.0 0.0 0.0 0.0 0.0 0.0 0.0 0.0 0.0 0.0 0.0 0.0 0.0 0.0 0.0 0.0
0.0 0.0 0.0 0.0 0.0 0.0 0.1 1.6 1.1 0.8 0.0 1.0 0.0 0.2 1.7 0.0 0.0 0.0 0.0 0.0 0.0 0.0 0.0 0.0 0.0 0.0 0.1
0.0 0.0 0.0 0.0 0.0 0.0 0.0 1.1 3.5 2.4 0.0 3.1 4.2 0.1 2.9 0.3 0.0 0.0 0.0 0.0 0.0 0.0 0.0 0.0 0.1 0.1 0.8
0.0 0.0 0.0 0.0 0.0 0.0 0.0 0.0 0.1 1.3 0.3 0.5 8.1 2.1 5.1 3.1 0.0 0.0 0.0 0.0 0.0 0.0 0.0 0.0 0.0 0.0 0.1
0.0 0.0 0.0 0.0 0.0 0.0 0.0 0.0 0.0 0.0 0.0 0.0 1.0 2.1 5.1 5.4 2.5 0.2 0.0 0.0 0.0 0.1 0.2 0.4 0.6 0.4 0.8
0.1 0.1 0.0 0.0 0.0 0.0 0.1 0.0 0.4 0.0 0.0 0.0 0.0 1.0 4.9 1.9 2.9 2.1 0.0 0.7 0.2 0.3 0.6 0.4 0.2 0.4 0.9
0.1 0.1 0.0 0.0 0.0 0.0 0.1 0.6 2.1 2.3 2.9 1.3 0.0 0.0 0.2 0.9 3.9 0.0 0.0 0.0 0.0 0.9 1.3 1.4 0.2 1.1 1.0
1.0 1.1 1.7 1.5 1.1 2.4 2.1 2.2 3.3 1.9 3.6 3.8 3.5 4.3 3.8 2.9 0.0 3.3 2.5 0.5 0.0 0.3 1.0 4.5 1.5 0.0 0.2
3.4 3.1 4.1 3.3 3.6 3.5 2.8 2.7 3.0 2.1 3.8 4.3 5.2 7.3 10.2 4.8 2.2 1.0 5.3 3.6 0.6 0.4 0.6 2.2 3.2 1.2 0.7

GFSFLT2_prec_kuchsnow_108.txt.gz
Snowfall_Accumulation
0.0 0.0 0.0 0.0 0.0 0.0 0.0 0.0 0.0 0.0 0.0 0.0 0.0 0.0 0.0 0.0 0.0 0.0 0.0 0.0 0.0 0.0 0.0 0.0 0.0 0.0 0.0
0.0 0.3 0.4 0.1 0.2 0.0 0.0 0.0 0.0 0.0 0.0 0.0 0.0 0.0 0.0 0.0 0.0 0.0 0.0 0.0 0.0 0.0 0.0 0.0 0.0 0.0 0.0
0.3 0.8 1.3 0.9 2.0 1.6 1.1 0.0 0.0 0.0 0.0 0.0 0.0 0.0 0.0 0.0 0.0 0.0 0.0 0.0 0.0 0.0 0.0 0.0 0.0 0.0 0.0
0.3 1.0 0.8 0.5 0.3 0.4 0.4 0.2 0.0 0.0 0.0 0.0 0.0 0.0 0.0 0.0 0.0 0.0 0.0 0.0 0.0 0.0 0.0 0.0 0.0 0.0 0.0
0.9 0.3 0.3 0.3 0.3 0.2 0.1 0.0 0.0 0.0 0.0 0.0 0.0 0.0 0.0 0.0 0.0 0.0 0.0 0.0 0.0 0.0 0.0 0.0 0.0 0.0 0.0
0.4 0.0 0.0 0.0 0.0 0.0 0.2 0.3 0.6 0.0 0.0 0.0 0.0 0.0 0.0 0.0 0.0 0.0 0.0 0.0 0.0 0.0 0.0 0.0 0.0 0.0 0.0
0.0 0.0 0.0 0.0 0.4 0.3 0.6 0.7 0.1 0.0 0.0 0.0 0.0 0.0 0.0 0.0 0.0 0.0 0.0 0.0 0.0 0.0 0.0 0.0 0.0 0.0 0.0
0.0 0.0 0.1 0.1 0.2 0.3 0.3 0.2 0.0 0.0 0.0 0.1 0.0 0.0 0.0 0.0 0.0 0.0 0.0 0.0 0.0 0.0 0.0 0.0 0.0 0.0 0.0
0.0 0.0 0.0 0.0 0.0 0.0 0.2 0.4 0.3 0.0 0.0 0.0 0.0 0.0 0.0 0.0 0.0 0.0 0.0 0.0 0.0 0.0 0.0 0.0 0.0 0.0 0.0
0.0 0.0 0.0 0.0 0.0 0.0 0.1 1.6 1.1 0.8 0.0 1.0 0.0 0.2 1.7 0.0 0.0 0.0 0.0 0.0 0.0 0.0 0.0 0.0 0.0 0.0 0.1
0.0 0.0 0.0 0.0 0.0 0.0 0.0 1.1 3.5 2.4 0.0 3.1 4.2 0.1 2.9 0.3 0.0 0.0 0.0 0.0 0.0 0.0 0.0 0.0 0.1 0.1 0.8
0.0 0.0 0.0 0.0 0.0 0.0 0.0 0.0 0.1 1.3 0.3 0.5 8.1 2.1 5.1 3.1 0.0 0.0 0.0 0.0 0.0 0.0 0.0 0.0 0.0 0.0 0.1
0.0 0.0 0.0 0.0 0.0 0.0 0.0 0.0 0.0 0.0 0.0 0.0 1.0 2.1 5.1 5.4 2.5 0.2 0.0 0.0 0.0 0.1 0.2 0.4 0.6 0.4 0.8
0.1 0.1 0.0 0.0 0.0 0.0 0.1 0.0 0.4 0.0 0.0 0.0 0.0 1.0 4.9 1.9 2.9 2.1 0.0 0.7 0.2 0.3 0.6 0.4 0.2 0.4 0.9
0.1 0.1 0.0 0.0 0.0 0.0 0.2 0.6 2.1 2.3 2.9 1.3 0.0 0.0 0.2 0.9 3.9 0.0 0.0 0.0 0.0 0.9 1.3 1.4 0.2 1.1 1.0
1.0 1.1 1.7 1.5 1.1 2.4 2.2 2.4 3.4 1.9 3.6 3.8 3.9 5.1 4.8 4.0 0.0 3.3 2.5 0.5 0.7 0.3 1.0 4.5 2.6 0.4 0.2
3.4 3.2 4.1 3.3 3.6 3.5 2.8 3.0 3.2 2.1 3.8 4.4 5.7 8.2 11.5 6.1 2.2 1.0 5.3 4.8 2.1 1.6 1.5 2.9 3.8 1.6 0.8